STARLINK-2503 (48151 NORAD) Tracking and Keplerian Element Data

This shows tracking and keplerian element data for the satellite.

Feedback or suggestion? Click here.




ElementValue
Catalog48151
NameSTARLINK-2503
Epoch Orbit196
Epoch Day173.83334491
Epoch Year2021
RAAN322.2359
Inclination53.0462
Eccentricity0.0001353
Argument of Perigee60.6198
Mean Anonmoly143.2482
Mean Motion15.62017351
Decay Rate-0.01100597
L11 48151U 21027BM 21173.83334491 -.01100597 00000-0 -13627-1 0 9995
L22 48151 53.0462 322.2359 0001353 60.6198 143.2482 15.62017351 1960

Live tracking and technical data element details for STARLINK-2503 (NORAD 48151). STARLINK-2503 can be tracked NOW for your location showing map with azimuth and elevation plus other details from your city location.

Track the satellite on the map from your city or location and see movement details for azimuth, elevation, latitude, longitude, range, height, and movement on the map or in text.







IsCatalogInMostPopularTable: catalog: 48151, numindb: 38
Update: records affected: 1



GetName: 48151 STARLINK-2503

Hit Count: updated at: Thu, 24 Jun 2021 02:17:49 GMT